ONEWEB-0015, 61594

Orbit data source: Space-Track

ONEWEB-0015, 61594 is a payload satellite owned by Eut. One Web (UK) in LEO that was launched on Sun, 20 Oct 2024 UTC via an FALCON 9 launch vehicle from the Air Force Western Test Range (AFWTR). Payload-class satellites include a variety of spacecraft equipped with specific instruments for various scientific and technological missions. These include communications satellites like Starlink; space stations such as the ISS; scientific satellites like the Hubble; Earth observation satellites from companies like Planet Labs, Umbra, and HawkEye 360; GPS; miniature CubeSats for education and research; and military/defense satellites.

Loading next visibility...
Identifier
61594, 2024-188A
Orbit
LEO
Last TLE update
14 hours ago
Origin
Manufacturer
One Web
Mission
Operational Commercial Communications
Bus & Motor
ARROW, Unknown motor
Mass
148 kg wet, ~140 kg dry
Launch date (UTC)
2024-10-20 (8 months ago)
Launch vehicle
FALCON 9
Launch site
Air Force Western Test Range (AFWTR)
Object type
Payload
Rocket body
Debris
Shape & HBR
Trap Box + 2 Pan, 5 m
Radar Cross Section
2.032 m², Large (>1 m²)

Expand to show TLE details & history

TLE from 14 hours ago
0 ONEWEB-0015
1 61594U 24188A   25181.81024382  .00000582  00000-0  16056-2 0  9998
2 61594  87.8865  91.1327 0001286  76.0209 284.1062 13.11417701 36483
Epoch: 2025-06-30T19:26Z
TLE epoch observation values (Epoch: 2025-06-30T19:26:45.066Z)
Latitude
0.00001°
Longitude
-119.66978°
Altitude
1,220.331 km
Speed
7.244 km/s
True Right ascension
06h 04m 31s
True Declination
0° 00' 00"
Sunlit
Object was in daylight at epoch
Visualization orbit readout
Latitude
-33.55538°
Longitude
-121.18541°
Altitude
1,230.607 km
Speed
7.238 km/s
Apparent Right ascension
07h 31m 11s
Apparent Declination
-39° 24' 41"
Sunlit
Object is in daylight
Visualization observer readout
Local Sidereal Time
21:33:50
Azimuth
98.73° ESE
Elevation
-66.507°
Doppler factor
1
Orbital elements
Apogee altitude
1,215.774 km
Perigee altitude
1,213.822 km
Semi-major axis
7,592.935 km
Eccentricity
0.00013
Inclination
87.8865°
RAAN
91.1327°
Arg. of periapsis
76.0209°
True anomaly
Unknown
Mean anomaly
284.1062°
Eccentric anomaly
Unknown
Mean motion
3.28041 °/min
Orbital period
109.74 mins
BSTAR
0.0016056
Loading maneuver chart data...
Loading SW <> Apogee altitude chart data...
Loading historical data...
Loading historical data...
Loading historical data...
Loading historical data...
Loading historical data...
Loading historical data...
Loading historical data...

ONEWEB-0015 Visibility forecast

Observer location: undefined°, undefined°

Span
Click to sort rows by Start time (UTC) header in descending order
Start Az.
Max El. time (UTC)
Max El. Az.
Max El.
End time (UTC)
End Az.
12 mins2025-07-01 17:31:28.895Z143.889° SSE2025-07-01 17:37:28.895Z82.601° E32.123°2025-07-01 17:43:28.895Z18.604° NNE
11 mins2025-07-01 19:22:28.895Z220.907° SW2025-07-01 19:27:28.895Z279.794° WNW31.262°2025-07-01 19:33:28.895Z342.133° N
11 mins2025-07-02 05:01:28.895Z24.846° NE2025-07-02 05:06:28.895Z76.105° E27.283°2025-07-02 05:12:28.895Z136.855° SSE
12 mins2025-07-02 06:51:28.895Z342.182° N2025-07-02 06:56:28.895Z283.691° WNW36.002°2025-07-02 07:03:28.895Z207.46° SW
|